| time (UTC) | temp C | wind direction | speed KPH | gust KPH | rain 1hr cm | rain 24hr cm | rain mn cm | humidity % | barometer mb |
| 20260506153024 | 12 | 7 | 11.3 | 22.5 | 0.00 | 0.03 | 0.05 | 85 | 1011.2 |
| 20260506152424 | 12 | 358 | 11.3 | 24.1 | 0.00 | 0.03 | 0.03 | 85 | 1012.0 |
| 20260506151824 | 13 | 360 | 12.9 | 24.1 | 0.00 | 0.03 | 0.03 | 85 | 1012.3 |
| 20260506151203 | 13 | 4 | 12.9 | 22.5 | 0.00 | 0.03 | 0.03 | 84 | 1011.5 |
| 20260506150645 | 13 | 355 | 14.5 | 25.7 | 0.00 | 0.03 | 0.03 | 84 | 1012.0 |
| 20260506150045 | 13 | 344 | 17.7 | 33.8 | 0.00 | 0.03 | 0.03 | 84 | 1011.9 |
| 20260506145424 | 13 | 339 | 17.7 | 29.0 | 0.00 | 0.03 | 0.03 | 84 | 1011.6 |
| 20260506144803 | 13 | 339 | 16.1 | 24.1 | 0.00 | 0.03 | 0.03 | 85 | 1011.8 |
| 20260506144203 | 13 | 347 | 14.5 | 24.1 | 0.00 | 0.03 | 0.03 | 85 | 1011.5 |
| 20260506143624 | 13 | 353 | 11.3 | 20.9 | 0.00 | 0.03 | 0.03 | 86 | 1011.0 |
| 20260506143003 | 13 | 356 | 8.0 | 17.7 | 0.00 | 0.03 | 0.03 | 86 | 1011.0 |
| 20260506142424 | 13 | 358 | 11.3 | 25.7 | 0.00 | 0.03 | 0.03 | 87 | 1011.2 |
| 20260506141803 | 13 | 4 | 11.3 | 25.7 | 0.00 | 0.03 | 0.03 | 87 | 1010.9 |
| 20260506141224 | 13 | 8 | 9.7 | 19.3 | 0.00 | 0.03 | 0.03 | 87 | 1010.7 |
| 20260506140603 | 13 | 9 | 9.7 | 16.1 | 0.00 | 0.03 | 0.03 | 87 | 1010.2 |
| 20260506140003 | 13 | 12 | 9.7 | 20.9 | 0.00 | 0.03 | 0.03 | 88 | 1009.9 |
| 20260506135424 | 13 | 20 | 11.3 | 20.9 | 0.00 | 0.03 | 0.03 | 88 | 1009.7 |
| 20260506134824 | 13 | 30 | 9.7 | 19.3 | 0.00 | 0.03 | 0.03 | 87 | 1009.7 |
| 20260506134245 | 13 | 35 | 8.0 | 17.7 | 0.00 | 0.03 | 0.03 | 87 | 1009.9 |
| 20260506133603 | 13 | 35 | 8.0 | 16.1 | 0.00 | 0.03 | 0.03 | 87 | 1009.8 |
| 20260506133024 | 13 | 36 | 8.0 | 17.7 | 0.00 | 0.03 | 0.03 | 87 | 1009.8 |
| 20260506132403 | 13 | 38 | 9.7 | 17.7 | 0.00 | 0.03 | 0.03 | 86 | 1009.7 |
| 20260506131803 | 13 | 39 | 9.7 | 19.3 | 0.00 | 0.03 | 0.03 | 86 | 1009.5 |
| 20260506131203 | 13 | 38 | 11.3 | 22.5 | 0.00 | 0.03 | 0.03 | 86 | 1009.3 |
| 20260506130624 | 13 | 36 | 11.3 | 22.5 | 0.00 | 0.03 | 0.03 | 86 | 1009.3 |
| 20260506130024 | 13 | 32 | 11.3 | 20.9 | 0.00 | 0.03 | 0.03 | 86 | 1009.2 |
| 20260506125506 | 13 | 30 | 11.3 | 19.3 | 0.00 | 0.03 | 0.03 | 86 | 1009.2 |
| 20260506124803 | 14 | 29 | 8.0 | 17.7 | 0.00 | 0.03 | 0.03 | 86 | 1009.1 |
| 20260506124245 | 14 | 28 | 8.0 | 16.1 | 0.03 | 0.03 | 0.03 | 85 | 1009.1 |
| 20260506123624 | 14 | 27 | 9.7 | 20.9 | 0.03 | 0.03 | 0.03 | 85 | 1008.8 |
| 20260506123045 | 14 | 27 | 9.7 | 20.9 | 0.03 | 0.03 | 0.03 | 85 | 1008.8 |
| 20260506122424 | 14 | 27 | 9.7 | 20.9 | 0.03 | 0.03 | 0.03 | 86 | 1008.7 |
| 20260506121803 | 14 | 27 | 9.7 | 20.9 | 0.03 | 0.03 | 0.03 | 86 | 1008.6 |
| 20260506121203 | 14 | 22 | 11.3 | 22.5 | 0.03 | 0.03 | 0.03 | 86 | 1008.6 |
| 20260506120603 | 14 | 7 | 9.7 | 22.5 | 0.03 | 0.03 | 0.03 | 86 | 1008.6 |
| 20260506120003 | 14 | 357 | 9.7 | 19.3 | 0.03 | 0.03 | 0.03 | 86 | 1008.5 |
| 20260506115445 | 15 | 353 | 11.3 | 20.9 | 0.03 | 0.03 | 0.03 | 86 | 1008.4 |
| 20260506114803 | 15 | 352 | 11.3 | 20.9 | 0.03 | 0.03 | 0.03 | 86 | 1008.3 |
| 20260506114203 | 15 | 349 | 11.3 | 19.3 | 0.00 | 0.00 | 0.00 | 86 | 1008.1 |
| 20260506113603 | 15 | 349 | 9.7 | 17.7 | 0.00 | 0.00 | 0.00 | 86 | 1008.1 |
| 20260506113024 | 15 | 349 | 9.7 | 17.7 | 0.00 | 0.00 | 0.00 | 86 | 1007.8 |
| 20260506112403 | 15 | 348 | 12.9 | 22.5 | 0.00 | 0.00 | 0.00 | 86 | 1007.8 |
| 20260506111845 | 15 | 348 | 11.3 | 22.5 | 0.00 | 0.00 | 0.00 | 86 | 1007.7 |
| 20260506111245 | 15 | 348 | 11.3 | 19.3 | 0.00 | 0.00 | 0.00 | 86 | 1007.6 |
| 20260506110603 | 15 | 351 | 12.9 | 20.9 | 0.00 | 0.00 | 0.00 | 87 | 1007.5 |
| 20260506110045 | 16 | 353 | 11.3 | 20.9 | 0.00 | 0.00 | 0.00 | 87 | 1007.5 |
| 20260506105403 | 16 | 353 | 9.7 | 19.3 | 0.00 | 0.00 | 0.00 | 87 | 1007.4 |
| 20260506104803 | 16 | 353 | 11.3 | 19.3 | 0.00 | 0.00 | 0.00 | 87 | 1007.2 |
| 20260506104203 | 16 | 354 | 11.3 | 20.9 | 0.00 | 0.00 | 0.00 | 87 | 1007.1 |
| 20260506103603 | 16 | 357 | 8.0 | 20.9 | 0.00 | 0.00 | 0.00 | 87 | 1006.9 |
| 20260506103003 | 17 | 357 | 6.4 | 14.5 | 0.00 | 0.00 | 0.00 | 87 | 1007.0 |
| 20260506102403 | 17 | 355 | 8.0 | 19.3 | 0.00 | 0.00 | 0.00 | 87 | 1006.8 |
| 20260506101824 | 17 | 354 | 8.0 | 19.3 | 0.00 | 0.00 | 0.00 | 87 | 1006.7 |
| 20260506101224 | 17 | 350 | 8.0 | 16.1 | 0.00 | 0.00 | 0.00 | 87 | 1006.7 |
| 20260506100603 | 17 | 336 | 8.0 | 19.3 | 0.00 | 0.00 | 0.00 | 87 | 1006.6 |
| 20260506100003 | 17 | 326 | 6.4 | 14.5 | 0.00 | 0.00 | 0.00 | 87 | 1006.6 |
| 20260506095403 | 17 | 323 | 4.8 | 16.1 | 0.00 | 0.00 | 0.00 | 87 | 1006.3 |
| 20260506094824 | 18 | 303 | 8.0 | 20.9 | 0.00 | 0.00 | 0.00 | 87 | 1006.3 |
| 20260506094203 | 18 | 228 | 6.4 | 20.9 | 0.00 | 0.00 | 0.00 | 87 | 1006.2 |
| 20260506093645 | 18 | 198 | 6.4 | 14.5 | 0.00 | 0.00 | 0.00 | 87 | 1006.2 |
| 20260506093003 | 19 | 197 | 8.0 | 14.5 | 0.00 | 0.00 | 0.00 | 87 | 1006.1 |
| 20260506092424 | 19 | 197 | 6.4 | 12.9 | 0.00 | 0.00 | 0.00 | 87 | 1006.0 |
| 20260506091803 | 20 | 197 | 4.8 | 11.3 | 0.00 | 0.00 | 0.00 | 86 | 1005.9 |
| 20260506091224 | 20 | 197 | 3.2 | 11.3 | 0.00 | 0.00 | 0.00 | 86 | 1005.9 |
| 20260506090645 | 20 | 197 | 4.8 | 12.9 | 0.00 | 0.00 | 0.00 | 86 | 1005.8 |
| 20260506090045 | 20 | 197 | 1.6 | 11.3 | 0.00 | 0.00 | 0.00 | 85 | 1005.8 |
| 20260506085403 | 20 | 197 | 3.2 | 11.3 | 0.00 | 0.00 | 0.00 | 85 | 1005.8 |
| 20260506084803 | 20 | 197 | 6.4 | 11.3 | 0.00 | 0.00 | 0.00 | 84 | 1005.8 |
| 20260506084203 | 21 | 197 | 6.4 | 9.7 | 0.00 | 0.00 | 0.00 | 84 | 1005.7 |
| 20260506083624 | 21 | 197 | 8.0 | 11.3 | 0.00 | 0.00 | 0.00 | 84 | 1005.7 |
| 20260506083003 | 21 | 197 | 8.0 | 12.9 | 0.00 | 0.00 | 0.00 | 84 | 1005.6 |
| 20260506082424 | 21 | 196 | 8.0 | 12.9 | 0.00 | 0.00 | 0.00 | 83 | 1005.5 |
| 20260506081803 | 21 | 195 | 6.4 | 12.9 | 0.00 | 0.00 | 0.00 | 83 | 1005.6 |
| 20260506081203 | 21 | 194 | 6.4 | 11.3 | 0.00 | 0.00 | 0.00 | 83 | 1005.6 |
| 20260506080603 | 21 | 194 | 6.4 | 12.9 | 0.00 | 0.00 | 0.00 | 83 | 1005.5 |
| 20260506073003 | 23 | 182 | 8.0 | 16.1 | 0.00 | 0.00 | 0.00 | 85 | 1005.5 |
| 20260506072403 | 23 | 181 | 8.0 | 19.3 | 0.00 | 0.00 | 0.00 | 85 | 1005.7 |
| 20260506071845 | 23 | 180 | 8.0 | 19.3 | 0.00 | 0.00 | 0.00 | 85 | 1005.7 |
| 20260506071224 | 23 | 179 | 4.8 | 14.5 | 0.00 | 0.00 | 0.00 | 85 | 1005.8 |
| 20260506070603 | 23 | 179 | 3.2 | 6.4 | 0.00 | 0.00 | 0.00 | 85 | 1005.9 |
| 20260506062403 | 24 | 179 | 4.8 | 14.5 | 0.00 | 0.00 | 0.00 | 85 | 1005.7 |
| 20260506061803 | 24 | 179 | 9.7 | 16.1 | 0.00 | 0.00 | 0.00 | 85 | 1005.7 |
| 20260506061203 | 24 | 177 | 8.0 | 16.1 | 0.00 | 0.00 | 0.00 | 85 | 1005.8 |
| 20260506060603 | 24 | 175 | 6.4 | 16.1 | 0.00 | 0.00 | 0.00 | 85 | 1005.8 |
| 20260506051245 | 24 | 172 | 6.4 | 14.5 | 0.00 | 0.00 | 0.00 | 86 | 1005.5 |
| 20260506050624 | 24 | 172 | 4.8 | 14.5 | 0.00 | 0.00 | 0.00 | 86 | 1005.6 |
| 20260506044845 | 24 | 172 | 3.2 | 11.3 | 0.00 | 0.00 | 0.00 | 85 | 1005.1 |
| 20260506044203 | 24 | 172 | 4.8 | 16.1 | 0.00 | 0.00 | 0.00 | 86 | 1005.1 |
| 20260506043603 | 24 | 172 | 6.4 | 16.1 | 0.00 | 0.00 | 0.00 | 85 | 1005.0 |
| 20260506043106 | 24 | 172 | 4.8 | 14.5 | 0.00 | 0.00 | 0.00 | 85 | 1005.2 |
| 20260506042424 | 24 | 172 | 4.8 | 14.5 | 0.00 | 0.00 | 0.00 | 85 | 1005.1 |
| 20260506041803 | 24 | 172 | 6.4 | 14.5 | 0.00 | 0.00 | 0.00 | 85 | 1005.0 |
| 20260506041245 | 24 | 172 | 8.0 | 20.9 | 0.00 | 0.00 | 0.00 | 85 | 1005.0 |
| 20260506040624 | 24 | 173 | 8.0 | 17.7 | 0.00 | 0.00 | 0.00 | 84 | 1004.8 |
| 20260506040003 | 24 | 173 | 6.4 | 16.1 | 0.00 | 0.00 | 0.00 | 84 | 1004.8 |
| 20260506035403 | 24 | 173 | 6.4 | 14.5 | 0.00 | 0.00 | 0.00 | 84 | 1004.7 |
| 20260506034824 | 24 | 173 | 6.4 | 14.5 | 0.00 | 0.00 | 0.00 | 84 | 1004.6 |
| 20260506034203 | 24 | 173 | 6.4 | 16.1 | 0.00 | 0.00 | 0.00 | 84 | 1004.4 |
| 20260506033603 | 24 | 173 | 4.8 | 16.1 | 0.00 | 0.00 | 0.00 | 84 | 1004.4 |
| 20260506033024 | 24 | 173 | 4.8 | 16.1 | 0.00 | 0.00 | 0.00 | 84 | 1004.4 |
| 20260506032403 | 24 | 172 | 6.4 | 12.9 | 0.00 | 0.00 | 0.00 | 83 | 1004.3 |
| 20260506031824 | 24 | 171 | 6.4 | 16.1 | 0.00 | 0.00 | 0.00 | 83 | 1004.1 |
| 20260506031203 | 24 | 170 | 6.4 | 16.1 | 0.00 | 0.00 | 0.00 | 84 | 1003.9 |
| 20260506030624 | 24 | 170 | 8.0 | 17.7 | 0.00 | 0.00 | 0.00 | 83 | 1003.7 |
| 20260506030003 | 25 | 170 | 8.0 | 17.7 | 0.00 | 0.00 | 0.00 | 83 | 1003.6 |
| 20260506025403 | 25 | 170 | 8.0 | 19.3 | 0.00 | 0.00 | 0.00 | 82 | 1003.6 |
| 20260506024824 | 25 | 169 | 8.0 | 19.3 | 0.00 | 0.00 | 0.00 | 82 | 1003.5 |
| 20260506024224 | 25 | 169 | 8.0 | 16.1 | 0.00 | 0.00 | 0.00 | 82 | 1003.5 |
| 20260506023603 | 25 | 169 | 8.0 | 19.3 | 0.00 | 0.00 | 0.00 | 82 | 1003.4 |
| 20260506023106 | 25 | 170 | 8.0 | 19.3 | 0.00 | 0.00 | 0.00 | 82 | 1003.2 |
| 20260506022445 | 25 | 170 | 11.3 | 19.3 | 0.00 | 0.00 | 0.00 | 81 | 1002.9 |
| 20260506021845 | 25 | 171 | 11.3 | 19.3 | 0.00 | 0.00 | 0.00 | 81 | 1002.8 |
| 20260506021224 | 25 | 171 | 9.7 | 20.9 | 0.00 | 0.00 | 0.00 | 81 | 1002.9 |
| 20260506020603 | 25 | 169 | 9.7 | 20.9 | 0.00 | 0.00 | 0.00 | 81 | 1002.9 |
| 20260506020045 | 25 | 168 | 8.0 | 20.9 | 0.00 | 0.00 | 0.00 | 81 | 1002.8 |
| 20260506015506 | 25 | 168 | 9.7 | 16.1 | 0.00 | 0.00 | 0.00 | 81 | 1002.9 |
| 20260506014824 | 25 | 168 | 9.7 | 17.7 | 0.00 | 0.00 | 0.00 | 80 | 1002.7 |
| 20260506014224 | 25 | 165 | 11.3 | 24.1 | 0.00 | 0.00 | 0.00 | 80 | 1002.7 |
| 20260506013624 | 25 | 162 | 11.3 | 24.1 | 0.00 | 0.00 | 0.00 | 80 | 1002.5 |
| 20260506013003 | 25 | 162 | 11.3 | 20.9 | 0.00 | 0.00 | 0.00 | 79 | 1002.6 |
| 20260506012506 | 25 | 162 | 11.3 | 20.9 | 0.00 | 0.00 | 0.00 | 79 | 1002.5 |
| 20260506011906 | 26 | 162 | 9.7 | 19.3 | 0.00 | 0.00 | 0.00 | 78 | 1002.4 |
| 20260506011203 | 26 | 162 | 11.3 | 22.5 | 0.00 | 0.00 | 0.00 | 78 | 1002.5 |
| 20260506010603 | 26 | 163 | 9.7 | 22.5 | 0.00 | 0.00 | 0.00 | 78 | 1002.5 |
| 20260506010024 | 26 | 164 | 9.7 | 19.3 | 0.00 | 0.00 | 0.00 | 78 | 1002.5 |
| 20260506005403 | 26 | 164 | 11.3 | 24.1 | 0.00 | 0.00 | 0.00 | 77 | 1002.5 |
| 20260506004803 | 26 | 166 | 11.3 | 27.4 | 0.00 | 0.00 | 0.00 | 76 | 1002.4 |
| 20260506004224 | 26 | 167 | 9.7 | 22.5 | 0.00 | 0.00 | 0.00 | 75 | 1002.4 |
| 20260506003603 | 26 | 167 | 9.7 | 24.1 | 0.00 | 0.00 | 0.00 | 75 | 1002.3 |
| 20260506003024 | 27 | 169 | 11.3 | 24.1 | 0.00 | 0.00 | 0.00 | 74 | 1002.3 |
| 20260506002424 | 27 | 172 | 11.3 | 25.7 | 0.00 | 0.00 | 0.00 | 74 | 1002.3 |
| 20260506001803 | 27 | 175 | 11.3 | 20.9 | 0.00 | 0.00 | 0.00 | 74 | 1002.2 |
| 20260506001203 | 27 | 175 | 9.7 | 20.9 | 0.00 | 0.00 | 0.00 | 74 | 1002.3 |
| 20260506000603 | 27 | 172 | 11.3 | 25.7 | 0.00 | 0.00 | 0.00 | 73 | 1002.1 |
| 20260506000024 | 27 | 170 | 12.9 | 27.4 | 0.00 | 0.00 | 0.00 | 73 | 1002.3 |
| 20260505235403 | 27 | 170 | 14.5 | 33.8 | 0.00 | 0.00 | 0.00 | 72 | 1002.3 |
| 20260505234824 | 27 | 170 | 14.5 | 33.8 | 0.00 | 0.00 | 0.00 | 72 | 1002.2 |
| 20260505234203 | 27 | 170 | 14.5 | 30.6 | 0.00 | 0.00 | 0.00 | 72 | 1002.1 |
| 20260505233624 | 27 | 175 | 12.9 | 24.1 | 0.00 | 0.00 | 0.00 | 72 | 1002.1 |
| 20260505233003 | 27 | 172 | 12.9 | 24.1 | 0.00 | 0.00 | 0.00 | 72 | 1002.1 |
| 20260505232403 | 27 | 171 | 14.5 | 27.4 | 0.00 | 0.00 | 0.00 | 72 | 1002.1 |
| 20260505231803 | 27 | 185 | 14.5 | 29.0 | 0.00 | 0.00 | 0.00 | 71 | 1002.2 |
| 20260505231203 | 27 | 183 | 16.1 | 29.0 | 0.00 | 0.00 | 0.00 | 71 | 1002.2 |
| 20260505230645 | 27 | 168 | 16.1 | 32.2 | 0.00 | 0.00 | 0.00 | 72 | 1001.9 |
| 20260505230024 | 27 | 170 | 16.1 | 32.2 | 0.00 | 0.00 | 0.00 | 72 | 1001.8 |
| 20260505225403 | 27 | 163 | 19.3 | 35.4 | 0.00 | 0.00 | 0.00 | 72 | 1001.8 |
| 20260505224824 | 27 | 165 | 19.3 | 33.8 | 0.00 | 0.00 | 0.00 | 71 | 1001.8 |
| 20260505224203 | 27 | 172 | 14.5 | 30.6 | 0.00 | 0.00 | 0.00 | 71 | 1001.9 |
| 20260505223603 | 28 | 173 | 12.9 | 29.0 | 0.00 | 0.00 | 0.00 | 71 | 1001.9 |
| 20260505223024 | 27 | 169 | 16.1 | 32.2 | 0.00 | 0.00 | 0.00 | 71 | 1002.0 |
| 20260505222506 | 28 | 169 | 14.5 | 32.2 | 0.00 | 0.00 | 0.00 | 71 | 1001.9 |
| 20260505221906 | 28 | 180 | 12.9 | 30.6 | 0.00 | 0.00 | 0.00 | 69 | 1001.9 |
| 20260505221224 | 28 | 177 | 16.1 | 30.6 | 0.00 | 0.00 | 0.00 | 71 | 1001.7 |
| 20260505220603 | 28 | 166 | 16.1 | 30.6 | 0.00 | 0.00 | 0.00 | 71 | 1001.7 |
| 20260505220003 | 28 | 178 | 14.5 | 35.4 | 0.00 | 0.00 | 0.00 | 71 | 1001.7 |
| 20260505215424 | 28 | 177 | 14.5 | 35.4 | 0.00 | 0.00 | 0.00 | 70 | 1001.9 |
| 20260505214845 | 28 | 176 | 14.5 | 27.4 | 0.00 | 0.00 | 0.00 | 71 | 1001.9 |
| 20260505214245 | 28 | 175 | 16.1 | 32.2 | 0.00 | 0.00 | 0.00 | 71 | 1002.0 |
| 20260505213624 | 28 | 168 | 16.1 | 32.2 | 0.00 | 0.00 | 0.00 | 71 | 1002.1 |
| 20260505213003 | 28 | 171 | 16.1 | 29.0 | 0.00 | 0.00 | 0.00 | 71 | 1002.2 |
| 20260505212403 | 28 | 180 | 14.5 | 29.0 | 0.00 | 0.00 | 0.00 | 70 | 1002.3 |
| 20260505211803 | 28 | 176 | 14.5 | 33.8 | 0.00 | 0.00 | 0.00 | 69 | 1002.3 |
| 20260505211203 | 28 | 179 | 14.5 | 32.2 | 0.00 | 0.00 | 0.00 | 69 | 1002.4 |
| 20260505210603 | 28 | 173 | 14.5 | 32.2 | 0.00 | 0.00 | 0.00 | 68 | 1002.3 |
| 20260505210003 | 28 | 185 | 12.9 | 29.0 | 0.00 | 0.00 | 0.00 | 69 | 1002.4 |
| 20260505205403 | 28 | 194 | 14.5 | 38.6 | 0.00 | 0.00 | 0.00 | 68 | 1002.5 |
| 20260505204803 | 28 | 200 | 16.1 | 38.6 | 0.00 | 0.00 | 0.00 | 67 | 1002.7 |
| 20260505204203 | 28 | 197 | 14.5 | 35.4 | 0.00 | 0.00 | 0.00 | 67 | 1002.8 |
| 20260505203706 | 28 | 202 | 14.5 | 30.6 | 0.00 | 0.00 | 0.00 | 68 | 1002.7 |
| 20260505203003 | 28 | 196 | 14.5 | 30.6 | 0.00 | 0.00 | 0.00 | 67 | 1002.9 |
| 20260505202445 | 28 | 187 | 14.5 | 30.6 | 0.00 | 0.00 | 0.00 | 67 | 1002.8 |
| 20260505201824 | 28 | 193 | 16.1 | 33.8 | 0.00 | 0.00 | 0.00 | 68 | 1002.9 |
| 20260505201203 | 28 | 203 | 16.1 | 37.0 | 0.00 | 0.00 | 0.00 | 67 | 1002.9 |
| 20260505200624 | 28 | 209 | 16.1 | 33.8 | 0.00 | 0.00 | 0.00 | 67 | 1002.9 |
| 20260505200003 | 28 | 201 | 14.5 | 29.0 | 0.00 | 0.00 | 0.00 | 66 | 1002.9 |
| 20260505195506 | 28 | 206 | 16.1 | 30.6 | 0.00 | 0.00 | 0.00 | 68 | 1003.1 |
| 20260505194824 | 28 | 204 | 16.1 | 41.8 | 0.00 | 0.00 | 0.00 | 66 | 1003.2 |
| 20260505194203 | 28 | 197 | 14.5 | 32.2 | 0.00 | 0.00 | 0.00 | 68 | 1003.1 |
| 20260505193645 | 28 | 204 | 16.1 | 32.2 | 0.00 | 0.00 | 0.00 | 68 | 1003.2 |
| 20260505193045 | 28 | 204 | 16.1 | 24.1 | 0.00 | 0.00 | 0.00 | 67 | 1003.1 |
| 20260505192403 | 27 | 191 | 16.1 | 35.4 | 0.00 | 0.00 | 0.00 | 69 | 1003.4 |
| 20260505191803 | 28 | 199 | 14.5 | 30.6 | 0.00 | 0.00 | 0.00 | 69 | 1003.3 |
| 20260505191203 | 27 | 194 | 14.5 | 30.6 | 0.00 | 0.00 | 0.00 | 69 | 1003.4 |
| 20260505190624 | 27 | 188 | 14.5 | 33.8 | 0.00 | 0.00 | 0.00 | 70 | 1003.4 |
| 20260505190024 | 27 | 208 | 16.1 | 40.2 | 0.00 | 0.00 | 0.00 | 69 | 1003.4 |
| 20260505185445 | 27 | 216 | 20.9 | 40.2 | 0.00 | 0.00 | 0.00 | 69 | 1003.4 |
| 20260505184803 | 27 | 210 | 19.3 | 40.2 | 0.00 | 0.00 | 0.00 | 70 | 1003.4 |
| 20260505184203 | 27 | 199 | 16.1 | 38.6 | 0.00 | 0.00 | 0.00 | 71 | 1003.5 |
| 20260505183603 | 27 | 203 | 14.5 | 30.6 | 0.00 | 0.00 | 0.00 | 71 | 1003.6 |
| 20260505183003 | 27 | 210 | 17.7 | 38.6 | 0.00 | 0.00 | 0.00 | 71 | 1003.7 |
| 20260505182403 | 27 | 208 | 16.1 | 38.6 | 0.00 | 0.00 | 0.00 | 70 | 1003.8 |
| 20260505181824 | 26 | 217 | 19.3 | 40.2 | 0.00 | 0.00 | 0.00 | 71 | 1003.8 |
| 20260505181203 | 26 | 217 | 20.9 | 40.2 | 0.00 | 0.00 | 0.00 | 70 | 1003.9 |
| 20260505180624 | 26 | 208 | 19.3 | 38.6 | 0.00 | 0.00 | 0.00 | 71 | 1003.9 |
| 20260505180003 | 26 | 206 | 20.9 | 46.7 | 0.00 | 0.00 | 0.00 | 72 | 1004.1 |
| 20260505175403 | 26 | 205 | 20.9 | 40.2 | 0.00 | 0.00 | 0.00 | 72 | 1004.0 |
| 20260505174824 | 26 | 202 | 19.3 | 49.9 | 0.00 | 0.00 | 0.00 | 72 | 1004.2 |
| 20260505174203 | 26 | 207 | 17.7 | 38.6 | 0.00 | 0.00 | 0.00 | 72 | 1004.3 |
| 20260505173645 | 26 | 217 | 17.7 | 41.8 | 0.00 | 0.00 | 0.00 | 73 | 1004.4 |
| 20260505173045 | 26 | 216 | 22.5 | 41.8 | 0.00 | 0.00 | 0.00 | 72 | 1004.4 |
| 20260505172445 | 26 | 209 | 20.9 | 41.8 | 0.00 | 0.00 | 0.00 | 72 | 1004.2 |
| 20260505171803 | 26 | 201 | 19.3 | 41.8 | 0.00 | 0.00 | 0.00 | 73 | 1004.1 |
| 20260505171203 | 25 | 205 | 20.9 | 41.8 | 0.00 | 0.00 | 0.00 | 73 | 1004.1 |
| 20260505170624 | 25 | 213 | 20.9 | 35.4 | 0.00 | 0.00 | 0.00 | 74 | 1004.1 |
| 20260505170024 | 25 | 213 | 20.9 | 45.1 | 0.00 | 0.00 | 0.00 | 75 | 1004.1 |
| 20260505165403 | 25 | 214 | 20.9 | 45.1 | 0.00 | 0.00 | 0.00 | 75 | 1004.1 |
| 20260505164803 | 25 | 213 | 22.5 | 45.1 | 0.00 | 0.00 | 0.00 | 76 | 1004.1 |
| 20260505164306 | 25 | 211 | 22.5 | 45.1 | 0.00 | 0.00 | 0.00 | 76 | 1004.1 |
| 20260505163603 | 24 | 208 | 20.9 | 45.1 | 0.00 | 0.00 | 0.00 | 77 | 1004.4 |
| 20260505163003 | 24 | 211 | 24.1 | 46.7 | 0.00 | 0.00 | 0.00 | 77 | 1004.5 |
| 20260505162403 | 24 | 211 | 22.5 | 46.7 | 0.00 | 0.00 | 0.00 | 77 | 1004.6 |
| 20260505161803 | 24 | 220 | 20.9 | 38.6 | 0.00 | 0.00 | 0.00 | 78 | 1004.5 |
| 20260505161203 | 24 | 213 | 19.3 | 53.1 | 0.00 | 0.00 | 0.00 | 78 | 1004.5 |
| 20260505160603 | 24 | 211 | 24.1 | 53.1 | 0.00 | 0.00 | 0.00 | 78 | 1004.1 |